"Pseudo-MPEC" for nf1664

Created 2020 Mar 14 17:07:05 UT using Find_Orb

Click here for an explanation of pseudo-MPECs

 
 Astrometry: 
     nf1664  +C2020 02 20B+!Astrometry)d.ve\\PUZ+0D*c^)redacted;wh04^kFtJVrFaH06
     nf1664  +C2020 02 20MP%\EuMPZ]N3Gw!click11_1Z'g,hereM(ZWbp^a46aQpyYhyl5QH06
     nf1664  +C2020 02 20m!b-#NA^oM2Rai:forW'!E\7aga`FexplanationO99j`?-mw[45H06
     nf1664   C2020 02 22.14095 11 33 44.17 +05 13 49.5    ~2M47 21.6 VVNEOCP033
     nf1664   C2020 02 22.14325 11 33 44.18 +05 13 49.8    ~2M47 21.8 VVNEOCP033

Station data:
(033) Karl Schwarzschild Observatory, Tautenburg  (N50.980140 E11.711240)
   Germany. 1.3-m Schmidt.
(H06) RAS Observatory, Mayhill  (N32.903325 W105.528700)  US/New
   Mexico.  Observers E. Guido, G. Sostero, V. Gonano, L. Donato.

Orbital elements:  nf1664
   Perihelion 2020 Jan 16.615687 +/- 47.7 TT = 14:46:35 (JD 2458865.115687)
Epoch 2020 Feb 22.0 TT = JDT 2458901.5   Earth MOID: 0.2251   Ma: 0.0066
M  10.34564539 +/- 14               (J2000 ecliptic)          AutoNEOCP
n   0.28434356 +/- 0.172            Peri.   24.64631 +/- 110
a   2.29037772 +/- 0.925            Node   100.65847 +/- 41
e   0.4718764 +/- 0.2               Incl.    0.61218 +/- 0.42
P   3.47                   H 22.6   G  0.15   U 11.6  SR
q 1.20960231 +/- 0.311    Q 3.37115313 +/- 19.6
From 5 observations 2020 Feb. 20-22 (42.4 hr); mean residual 0".19
Residuals in arcseconds: 
200220 H06  .12+  .11-    200220 H06  .26+  .08-    200222 033  .05-  .20+    
200220 H06  .39-  .19+    200222 033  .05+  .20-    

Ephemerides (geocentric):
Date (UTC) HH   RA              Dec         delta   r     elong  mag " sig PA
---- -- -- --  -------------   -----------  ------ ------ -----  --- ---- ---
2020 03 14 17  11 32 46.582   +05 19 58.54  .36108 1.3550 176.6 21.3  48d   1
2020 03 14 18  11 32 46.237   +05 19 58.84  .36127 1.3552 176.5 21.3  48d   1
2020 03 14 19  11 32 45.893   +05 19 59.13  .36146 1.3554 176.5 21.3  49d   1
2020 03 14 20  11 32 45.549   +05 19 59.41  .36164 1.3555 176.5 21.3  49d   1
2020 03 14 21  11 32 45.206   +05 19 59.68  .36183 1.3557 176.4 21.3  49d   1
2020 03 14 22  11 32 44.864   +05 19 59.94  .36202 1.3559 176.4 21.3  49d   1
2020 03 14 23  11 32 44.522   +05 20 00.20  .36221 1.3561 176.4 21.3  49d   1
2020 03 15 00  11 32 44.181   +05 20 00.44  .36239 1.3563 176.3 21.3  49d   1
2020 03 15 01  11 32 43.840   +05 20 00.68  .36258 1.3565 176.3 21.3  49d   1
2020 03 15 02  11 32 43.500   +05 20 00.90  .36277 1.3567 176.2 21.3  49d   1
2020 03 15 03  11 32 43.161   +05 20 01.11  .36296 1.3569 176.2 21.3  49d   1
2020 03 15 04  11 32 42.822   +05 20 01.32  .36315 1.3571 176.2 21.4  49d   1
2020 03 15 05  11 32 42.484   +05 20 01.51  .36334 1.3573 176.1 21.4  49d   1
2020 03 15 06  11 32 42.147   +05 20 01.70  .36353 1.3574 176.1 21.4  49d   1
2020 03 15 07  11 32 41.810   +05 20 01.88  .36372 1.3576 176.1 21.4  50d   1
2020 03 15 08  11 32 41.475   +05 20 02.04  .36391 1.3578 176.0 21.4  50d   1
2020 03 15 09  11 32 41.139   +05 20 02.20  .36410 1.3580 176.0 21.4  52d   1
2020 03 15 10  11 32 40.805   +05 20 02.34  .36429 1.3582 176.0 21.4  52d   1
2020 03 15 11  11 32 40.471   +05 20 02.48  .36448 1.3584 175.9 21.4  53d   1
2020 03 15 12  11 32 40.138   +05 20 02.60  .36467 1.3586 175.9 21.4  54d   1
2020 03 15 13  11 32 39.806   +05 20 02.72  .36487 1.3588 175.9 21.4  54d   1
2020 03 15 14  11 32 39.474   +05 20 02.83  .36506 1.3590 175.8 21.4  54d   1
2020 03 15 15  11 32 39.143   +05 20 02.92  .36525 1.3592 175.8 21.4  54d   1
2020 03 15 16  11 32 38.813   +05 20 03.01  .36544 1.3594 175.8 21.4  55d   1
2020 03 15 17  11 32 38.484   +05 20 03.08  .36563 1.3595 175.7 21.4  55d   1
2020 03 15 18  11 32 38.155   +05 20 03.15  .36583 1.3597 175.7 21.4  55d   1
2020 03 15 19  11 32 37.827   +05 20 03.20  .36602 1.3599 175.6 21.4  55d   1
2020 03 15 20  11 32 37.500   +05 20 03.25  .36621 1.3601 175.6 21.4  55d   1
2020 03 15 21  11 32 37.174   +05 20 03.28  .36641 1.3603 175.6 21.4  55d   1
2020 03 15 22  11 32 36.849   +05 20 03.31  .36660 1.3605 175.5 21.4  55d   1
2020 03 15 23  11 32 36.524   +05 20 03.32  .36679 1.3607 175.5 21.4  55d   1
2020 03 16 00  11 32 36.200   +05 20 03.32  .36699 1.3609 175.5 21.4  55d   1
2020 03 16 01  11 32 35.877   +05 20 03.32  .36718 1.3611 175.4 21.4  55d   1
2020 03 16 02  11 32 35.555   +05 20 03.30  .36738 1.3613 175.4 21.4  55d   1
2020 03 16 03  11 32 35.234   +05 20 03.27  .36757 1.3615 175.3 21.4  55d   1
2020 03 16 04  11 32 34.913   +05 20 03.23  .36777 1.3617 175.3 21.4  55d   1
2020 03 16 05  11 32 34.594   +05 20 03.18  .36796 1.3618 175.3 21.4  55d   1
2020 03 16 06  11 32 34.275   +05 20 03.12  .36816 1.3620 175.2 21.4  55d   1
2020 03 16 07  11 32 33.957   +05 20 03.05  .36836 1.3622 175.2 21.4  55d   1
2020 03 16 08  11 32 33.640   +05 20 02.97  .36855 1.3624 175.2 21.4  55d   1
2020 03 16 09  11 32 33.324   +05 20 02.88  .36875 1.3626 175.1 21.4  55d   1
2020 03 16 10  11 32 33.009   +05 20 02.77  .36894 1.3628 175.1 21.4  55d   1
2020 03 16 11  11 32 32.694   +05 20 02.66  .36914 1.3630 175.0 21.4  56d   0
2020 03 16 12  11 32 32.381   +05 20 02.53  .36934 1.3632 175.0 21.4  56d   0
2020 03 16 13  11 32 32.068   +05 20 02.40  .36954 1.3634 175.0 21.5  56d   0
2020 03 16 14  11 32 31.757   +05 20 02.25  .36973 1.3636 174.9 21.5  56d   0
2020 03 16 15  11 32 31.446   +05 20 02.09  .36993 1.3638 174.9 21.5  56d   0
2020 03 16 16  11 32 31.136   +05 20 01.92  .37013 1.3640 174.9 21.5  56d   0